Location: Wangen+im+Allg�u
(47.7098°N, 9.8383°E)
Time: 03:16:04
(UTC+02:00)

ISS - Visible Passes

Search period start: 25 May 2017 00:00
Search period end: 04 June 2017 00:00
Orbit: 402 x 409 km, 51.6° (Epoch: 25 May)

Date Brightness Start Highest point End Pass type
(mag) Time Alt. Az. Time Alt. Az. Time Alt. Az.
25 May -2.4 01:06:06 10° WNW 01:09:15 40° N 01:12:24 10° ENE visible
25 May -3.2 02:42:51 10° WNW 02:46:06 58° NNE 02:49:21 10° E visible
25 May -3.2 04:19:29 10° WNW 04:22:31 34° SW 04:25:31 10° SSE visible
25 May -3.9 22:37:13 10° SW 22:40:29 64° SSE 22:43:45 10° ENE visible
26 May -2.6 00:13:55 10° W 00:17:07 44° N 00:20:18 10° ENE visible
26 May -2.7 01:50:47 10° WNW 01:53:59 46° N 01:57:11 10° E visible
26 May -3.8 03:27:20 10° WNW 03:30:35 57° SSW 03:33:47 10° SE visible
26 May -3.3 21:45:26 10° SW 21:48:31 39° SE 21:51:38 10° ENE visible
26 May -3.1 23:21:44 10° W 23:24:59 54° NNW 23:28:14 10° ENE visible
27 May -2.5 00:58:41 10° WNW 01:01:50 40° N 01:04:59 10° ENE visible
27 May -4.0 02:35:15 10° WNW 02:38:33 88° SW 02:41:51 10° ESE visible
27 May -2.3 04:12:24 10° W 04:14:41 17° SW 04:16:56 10° S visible
27 May -3.6 22:29:35 10° WSW 22:32:52 74° NNW 22:36:10 10° ENE visible
28 May -2.4 00:06:31 10° WNW 00:09:40 39° N 00:12:48 10° ENE visible
28 May -3.5 01:43:12 10° WNW 01:46:29 65° NNE 01:47:25 41° E visible
28 May -1.2 03:19:55 10° W 03:19:57 10° W 03:19:57 10° W visible
28 May -2.5 23:14:18 10° W 23:17:28 42° N 23:20:39 10° ENE visible
29 May -2.9 00:51:07 10° WNW 00:54:21 49° NNE 00:56:00 24° ENE visible
29 May -1.7 02:27:41 10° WNW 02:28:36 17° WNW 02:28:36 17° WNW visible
29 May -2.8 22:22:04 10° W 22:25:18 50° NNW 22:28:32 10° ENE visible
29 May -2.6 23:59:00 10° WNW 00:02:10 42° N 00:05:06 11° E visible
30 May -2.8 01:35:32 10° WNW 01:37:42 38° WNW 01:37:42 38° WNW visible
30 May -2.4 23:06:48 10° WNW 23:09:57 39° N 23:13:06 10° ENE visible
31 May -3.7 00:43:26 10° WNW 00:46:44 73° NNE 00:47:00 68° ENE visible
31 May -2.4 22:14:35 10° WNW 22:17:44 41° N 22:20:53 10° ENE visible
31 May -3.1 23:51:20 10° WNW 23:54:35 54° NNE 23:56:23 23° E visible
01 Jun -1.7 01:27:55 10° WNW 01:29:01 18° W 01:29:01 18° W visible
01 Jun -2.7 22:59:11 10° WNW 23:02:22 44° N 23:05:34 10° E visible
02 Jun -3.5 00:35:43 10° WNW 00:38:28 53° WSW 00:38:28 53° WSW visible
02 Jun -2.5 22:06:59 10° WNW 22:10:08 40° N 22:13:17 10° ENE visible
02 Jun -3.9 23:43:34 10° WNW 23:46:53 84° NNE 23:47:56 40° ESE visible
03 Jun -1.0 01:20:34 10° W 01:20:35 10° W 01:20:35 10° W visible
03 Jun -3.3 22:51:26 10° WNW 22:54:42 60° NNE 22:57:28 14° E visible
